This is the latest recevied weather packets stored in our database for station/object DO1YM-13. If no packets are shown the sender has not sent any weather packets the latest 10 day(s).
| Time | Temp. | Humidity | Pressure | Rain* | Wind** | Luminosity | Snow |
|---|---|---|---|---|---|---|---|
| 1787683248 | 19.44° C | 54% | 1013.9 hPa | 0 mm | - | 0 W/m² | - |
| 1787682947 | 20° C | 54% | 1013.5 hPa | 0 mm | - | 0 W/m² | - |
| 1787682648 | 20° C | 53% | 1013.9 hPa | 0 mm | - | 0 W/m² | - |
| 1787682351 | 20° C | 53% | 1013.9 hPa | 0 mm | - | 1 W/m² | - |
| 1787682048 | 20° C | 53% | 1013.5 hPa | 0 mm | - | 1 W/m² | - |
| 1787681750 | 20° C | 52% | 1013.5 hPa | 0 mm | - | 1 W/m² | - |
| 1787681451 | 20.56° C | 51% | 1013.5 hPa | 0 mm | - | 2 W/m² | - |
| 1787681149 | 20.56° C | 51% | 1013.5 hPa | 0 mm | - | 2 W/m² | - |
| 1787680849 | 20.56° C | 50% | 1013.5 hPa | 0 mm | - | 4 W/m² | - |
| 1787680548 | 21.11° C | 50% | 1013.5 hPa | 0 mm | - | 5 W/m² | - |
| 1787680249 | 21.11° C | 49% | 1013.5 hPa | 0 mm | - | 6 W/m² | - |
| 1787679949 | 21.11° C | 49% | 1013.5 hPa | 0 mm | - | 7 W/m² | - |
| 1787679650 | 21.11° C | 48% | 1013.2 hPa | 0 mm | - | 8 W/m² | - |
| 1787679347 | 21.67° C | 48% | 1013.2 hPa | 0 mm | - | 8 W/m² | - |
| 1787679047 | 21.67° C | 47% | 1013.2 hPa | 0 mm | - | 10 W/m² | - |
| 1787678747 | 21.67° C | 47% | 1012.9 hPa | 0 mm | - | 12 W/m² | - |
| 1787678448 | 21.67° C | 47% | 1013.2 hPa | 0 mm | - | 13 W/m² | - |
| 1787678148 | 21.67° C | 47% | 1013.2 hPa | 0 mm | - | 13 W/m² | - |
| 1787677848 | 21.67° C | 47% | 1013.2 hPa | 0 mm | - | 18 W/m² | - |
| 1787677547 | 22.22° C | 46% | 1012.9 hPa | 0 mm | - | 25 W/m² | - |
| 1787677250 | 22.22° C | 46% | 1012.9 hPa | 0 mm | - | 27 W/m² | - |
| 1787676948 | 22.22° C | 45% | 1012.9 hPa | 0 mm | - | 26 W/m² | - |
| 1787676648 | 22.22° C | 45% | 1012.9 hPa | 0 mm | - | 25 W/m² | - |
| 1787676350 | 22.22° C | 45% | 1012.9 hPa | 0 mm | - | 25 W/m² | - |
| 1787676048 | 22.22° C | 45% | 1012.9 hPa | 0 mm | - | 31 W/m² | - |
* Rain since midnight (hover to see other rain measurements)
** Current wind speed in m/s (hover to see current wind gust speed)